Weather History for GMML - February, 2014

Change the Weather History Date:

Wednesday, February 19, 2014

  Actual Average Record
Temperature  
Mean Temperature 62 °F -  
Max Temperature 68 °F - - ()
Min Temperature 55 °F - - ()
Degree Days  
Heating Degree Days 4    
Growing Degree Days 12 (Base 50)    
Moisture  
Dew Point 50 °F    
Average Humidity 68    
Maximum Humidity 88    
Minimum Humidity 46    
Precipitation  
Precipitation 0.00 in - - ()
Sea Level Pressure  
Sea Level Pressure 30.23 in    
Wind  
Wind Speed 13 mph ()    
Max Wind Speed 26 mph    
Max Gust Speed -    
Visibility 5.7 miles    
Events      
T = Trace of Precipitation, MM = Missing Value Source: Averaged Metar Reports

Daily Weather History Graph

Daily Weather History Graph

Search for Another Location

Airport or City:

Trip Planner

Search our weather history database for the weather conditions in past years. The results will help you decide how hot, cold, wet, or windy it might be!

Date:

Astronomy

Feb. 19, 2014 Rise Set
Actual Time 7:26 AM WET 6:47 PM WET
Civil Twilight 7:02 AM WET 7:11 PM WET
Nautical Twilight 6:35 AM WET 7:38 PM WET
Astronomical Twilight 6:08 AM WET 8:05 PM WET
Moon 10:58 PM WET (2/19) 9:51 AM WET (2/19)
Length of Visible Light 12h 08m
Length of Day
11h 21m
Waning Gibbous, 81% of the Moon is Illuminated
Feb 19
Waning Gibbous
Feb 22
Last Quarter
Mar 1
New
Mar 8
First Quarter
Mar 16
Full

Hourly Weather History & Observations

Time (WET) Temp. Dew Point Humidity Pressure Visibility Wind Dir Wind Speed Gust Speed Precip Events Conditions
12:00 AM 57.2 °F 50.0 °F 77% 30.24 in - NNE 8.1 mph - N/A   Clear
1:00 AM 57.2 °F 50.0 °F 77% 30.24 in - NNE 8.1 mph - N/A   Clear
2:00 AM 55.4 °F 50.0 °F 82% 30.24 in - NNE 4.6 mph - N/A   Clear
3:00 AM 57.2 °F 51.8 °F 82% 30.21 in - NNE 15.0 mph - N/A   Clear
4:00 AM 57.2 °F 51.8 °F 82% 30.21 in - NE 13.8 mph - N/A   Clear
5:00 AM 55.4 °F 50.0 °F 82% 30.21 in - NNE 9.2 mph - N/A   Clear
6:00 AM 55.4 °F 50.0 °F 82% 30.21 in 6.2 mi NNE 10.4 mph - N/A   Mostly Cloudy
7:00 AM 55.4 °F 51.8 °F 88% 30.24 in 6.2 mi NNE 6.9 mph - N/A   Mostly Cloudy
8:00 AM 55.4 °F 51.8 °F 88% 30.24 in 6.2 mi NNE 6.9 mph - N/A   Mostly Cloudy
9:00 AM 59.0 °F 51.8 °F 77% 30.27 in 6.2 mi NNE 10.4 mph - N/A   Scattered Clouds
10:00 AM 62.6 °F 50.0 °F 63% 30.27 in 6.2 mi NE 18.4 mph - N/A   Scattered Clouds
11:00 AM 64.4 °F 48.2 °F 56% 30.27 in 6.2 mi NNE 23.0 mph - N/A   Scattered Clouds
12:00 PM 66.2 °F 48.2 °F 52% 30.27 in 6.2 mi NE 24.2 mph - N/A   Scattered Clouds
1:00 PM 68.0 °F 46.4 °F 46% 30.24 in 6.2 mi NE 24.2 mph - N/A   Scattered Clouds
2:00 PM 68.0 °F 46.4 °F 46% 30.21 in 5.0 mi NE 24.2 mph - N/A   Unknown
3:00 PM 68.0 °F 48.2 °F 49% 30.18 in 5.0 mi NE 26.5 mph - N/A   Scattered Clouds
4:00 PM 68.0 °F 48.2 °F 49% 30.18 in 5.0 mi NE 25.3 mph - N/A   Unknown
5:00 PM 66.2 °F 48.2 °F 52% 30.18 in 5.0 mi NE 24.2 mph - N/A   Scattered Clouds
6:00 PM 64.4 °F 48.2 °F 56% 30.21 in 5.0 mi NE 23.0 mph - N/A   Scattered Clouds
7:00 PM 62.6 °F 50.0 °F 63% 30.21 in 5.0 mi NE 21.9 mph - N/A   Mostly Cloudy
8:00 PM 60.8 °F 50.0 °F 68% 30.24 in 5.0 mi NE 19.6 mph - N/A   Scattered Clouds
9:00 PM 60.8 °F 51.8 °F 72% 30.24 in 6.2 mi NNE 19.6 mph - N/A   Scattered Clouds
10:00 PM 60.8 °F 50.0 °F 68% 30.27 in 6.2 mi NE 18.4 mph - N/A   Mostly Cloudy
11:00 PM 60.8 °F 51.8 °F 72% 30.27 in 6.2 mi NNE 18.4 mph - N/A   Mostly Cloudy